Theta_e
309 309 309 309 310 310 310 310 310 310 310 310 310 310 310 310 309 309 308 308 305 304 308 307 308 308 308 308 307 307 308 310 310 310 310 309 308 306 306 306 306 307 306
309 309 309 309 309 309 309 310 310 310 310 310 310 310 310 309 309 308 308 308 306 305 306 308 308 307 307 307 308 307 308 310 310 311 308 308 307 306 306 305 305 305 305
308 308 309 309 309 309 309 309 309 310 310 310 309 309 309 309 308 308 308 308 308 307 305 307 307 307 307 307 308 307 309 309 311 310 308 307 306 305 306 305 305 305 304
308 308 308 308 308 308 308 308 309 309 309 309 309 309 308 308 307 307 307 308 308 307 305 307 307 307 305 303 305 307 308 309 311 310 308 307 306 305 305 305 305 305 304
308 308 308 308 307 308 308 308 308 308 308 308 308 308 307 307 305 303 304 306 306 306 305 306 307 305 304 303 303 305 307 309 309 308 308 307 306 305 305 305 304 304 303
307 308 308 307 307 307 307 307 307 307 307 307 307 307 307 306 304 303 303 305 304 304 305 305 305 305 304 304 303 305 307 310 309 309 308 307 306 306 306 305 305 304 302
307 306 307 307 307 307 307 307 307 306 306 306 306 305 303 303 303 302 302 303 304 304 304 303 305 304 305 306 306 307 308 309 310 309 308 308 307 307 306 306 305 304 302
305 306 306 306 307 307 306 306 305 305 304 304 303 302 302 302 302 302 302 303 305 305 304 304 304 305 307 308 308 308 308 310 310 309 309 309 308 308 307 306 305 304 303
305 305 306 306 306 305 304 303 302 303 303 302 301 301 301 302 302 303 303 304 305 305 304 304 306 307 308 309 308 309 311 311 310 309 309 309 308 308 308 306 306 304 301
305 305 304 304 304 302 301 301 301 301 301 301 301 301 300 301 301 301 303 304 304 303 304 306 307 307 308 308 309 310 311 310 310 310 309 308 308 308 308 308 307 305 303
305 303 303 302 302 301 301 301 301 301 300 300 301 300 301 301 301 301 302 303 303 304 305 306 306 308 309 309 309 309 310 310 309 309 309 309 309 309 308 308 307 307 306
304 304 302 301 301 301 301 301 301 300 299 300 300 300 300 301 301 303 303 303 304 305 305 306 306 308 309 308 309 309 309 309 309 309 309 308 308 306 307 304 301 298 300
304 302 301 301 301 301 301 300 300 299 299 300 300 300 301 302 303 304 304 305 305 306 306 306 307 308 308 309 307 307 307 307 307 308 308 306 303 299 299 298 297 297 297
302 302 301 301 301 301 302 300 300 300 300 300 301 302 302 303 304 305 306 306 306 306 306 307 307 307 307 307 308 308 308 308 307 306 305 305 304 303 300 301 301 300 301
301 302 302 301 302 302 301 302 301 300 300 301 302 303 304 305 305 306 306 307 307 307 306 307 307 307 308 308 308 308 307 306 305 305 304 300 300 303 305 305 305 305 305
302 302 302 302 302 302 302 302 302 302 303 303 304 305 305 305 305 306 306 307 307 308 308 308 308 307 307 307 307 307 305 302 302 306 305 305 305 305 305 306 306 307 307
303 303 303 303 303 303 303 303 304 304 304 304 305 305 306 306 306 307 307 308 308 308 309 307 306 305 306 307 307 306 306 306 305 305 306 306 306 306 307 307 307 307 307
303 304 304 305 304 303 304 304 304 305 305 305 306 306 307 307 308 308 308 308 307 307 304 303 302 305 307 307 307 307 308 308 308 308 308 308 308 308 308 309 309 309 309
306 305 305 305 305 305 305 306 306 306 306 307 307 307 308 307 308 309 308 306 303 304 307 308 309 309 309 309 309 309 309 309 310 310 311 311 311 311 311 310 308 308 309
306 307 306 306 306 306 306 307 307 307 308 308 308 308 309 309 309 308 308 308 309 310 310 310 310 310 310 310 310 311 311 311 311 311 311 311 311 311 310 310 310 310 310
307 307 307 307 308 308 308 308 309 309 309 308 307 307 308 309 309 309 309 310 310 310 310 310 310 310 311 311 311 311 311 311 311 311 311 310 310 310 310 311 310 310 310
309 309 308 308 308 308 308 309 309 309 309 308 308 308 308 309 309 309 309 309 309 309 309 309 309 309 310 310 310 309 310 310 309 309 308 307 307 308 309 309 309 309 309
310 309 309 309 308 310 309 308 307 307 308 309 309 309 309 308 308 308 307 307 307 307 307 306 307 307 307 307 306 305 306 307 306 305 304 304 304 306 307 307 307 306 304
310 310 310 308 309 310 308 307 307 307 306 306 307 307 307 306 306 305 304 304 304 304 304 304 303 301 301 301 301 300 300 300 303 303 303 303 303 303 304 304 303 303 303
308 308 308 309 310 308 307 307 307 306 307 306 306 305 303 303 303 302 302 302 302 302 301 301 301 301 299 299 299 299 299 300 300 302 302 302 302 302 302 302 302 302 302
306 307 308 308 308 307 307 307 307 306 305 303 302 302 302 302 301 301 301 301 301 301 301 300 299 299 299 299 299 300 300 300 300 301 302 303 302 302 302 302 302 302 302
Wind_Speed
10 11 11 10 10 10 11 13 13 13 13 12 11 12 11 10 9 9 8 7 11 10 12 12 14 15 14 12 13 11 11 11 15 6 1 5 7 14 11 10 10 12 17
10 11 10 9 10 11 13 13 11 12 12 12 10 11 8 8 8 10 10 9 8 11 11 11 13 15 16 14 12 13 10 11 14 5 2 4 9 9 9 10 10 12 13
11 10 10 10 10 11 12 12 11 11 12 10 9 7 6 8 9 10 11 12 11 9 11 10 13 17 17 15 13 12 11 10 11 8 3 4 8 11 10 8 9 10 12
11 10 10 11 11 12 12 12 12 13 12 10 8 6 7 7 7 9 12 13 11 8 11 12 13 16 18 18 11 9 12 11 6 4 6 6 8 10 11 10 11 12 13
11 10 10 12 12 11 11 12 13 13 12 11 9 8 7 5 7 11 12 13 8 8 11 12 12 19 21 15 11 9 8 8 3 4 4 8 8 7 5 9 14 12 14
14 13 12 13 11 11 10 12 13 13 13 12 11 10 9 8 10 12 12 12 10 10 10 14 14 14 18 11 8 9 5 3 3 2 6 11 8 5 7 6 5 6 15
16 16 16 16 13 10 11 11 13 14 14 14 13 12 12 12 14 13 11 11 9 10 12 14 13 11 11 10 7 5 5 0 2 2 8 6 3 7 10 10 9 14 16
17 16 15 15 12 10 10 12 13 14 14 11 10 11 12 12 15 13 9 8 6 8 11 11 11 9 8 6 3 4 2 3 4 8 10 4 5 8 9 12 12 14 15
17 15 14 12 10 10 14 15 14 14 10 11 12 10 11 9 10 4 2 5 7 6 7 9 9 7 6 5 7 6 8 10 10 13 8 7 7 8 9 11 10 11 16
14 13 12 12 13 14 15 15 13 12 10 9 11 10 9 7 9 7 6 6 6 4 5 8 10 9 10 10 9 10 12 14 13 11 9 9 7 6 6 7 7 10 14
11 13 12 13 14 14 15 15 14 12 10 7 7 8 8 9 11 9 8 7 8 8 11 13 15 15 14 13 13 13 14 12 11 10 8 8 6 7 7 8 8 8 8
11 12 14 15 17 13 13 12 13 11 10 9 9 10 11 12 12 11 11 12 12 12 14 16 16 18 19 19 17 14 12 11 9 8 9 10 10 14 17 19 19 18 15
11 13 16 14 12 13 12 12 15 14 12 12 13 11 10 10 9 12 13 14 16 17 16 17 18 17 15 15 14 12 11 9 10 11 14 18 20 22 22 20 18 18 17
12 12 11 12 12 13 15 15 15 13 14 14 14 15 13 14 16 16 16 16 16 17 17 16 15 15 15 14 15 16 16 18 20 22 24 24 23 22 18 16 15 16 17
12 12 12 13 15 16 18 19 18 18 18 17 18 17 17 19 19 18 18 18 16 15 14 14 14 16 17 17 17 19 22 26 25 25 24 23 18 14 13 12 12 12 14
16 16 17 16 15 16 19 21 22 22 21 20 19 19 19 18 17 16 14 13 13 17 20 22 24 25 26 27 26 27 27 24 20 16 14 12 12 11 11 10 10 11 11
16 17 17 17 17 18 18 17 18 20 20 19 18 18 18 16 16 15 16 18 19 21 26 30 31 25 20 20 19 17 15 13 14 12 12 12 11 11 12 11 11 11 11
16 17 18 18 20 19 16 14 14 15 18 20 20 19 18 17 18 21 24 27 30 33 33 29 26 25 20 21 20 19 18 16 15 14 13 13 12 12 12 11 10 10 9
17 17 19 20 20 20 22 22 22 22 22 24 26 28 29 28 27 27 30 32 29 24 23 23 22 21 20 18 16 15 14 14 12 10 9 9 9 10 10 8 8 10 8
19 20 20 19 21 22 22 24 25 25 25 26 24 25 26 28 30 29 27 25 25 24 23 22 20 18 17 16 15 15 14 13 13 13 11 10 9 9 9 8 8 8 8
16 20 20 21 23 25 25 26 28 30 30 27 23 30 27 24 24 24 24 22 21 20 18 18 17 16 15 14 15 15 14 13 13 13 12 11 11 10 8 8 9 9 10
14 14 20 24 25 27 28 26 25 24 23 21 21 25 26 23 22 21 19 18 17 16 16 16 16 16 15 15 15 14 13 12 13 12 12 11 9 9 9 9 9 10 9
15 21 23 22 18 19 16 19 23 22 21 21 21 21 21 21 20 19 18 17 17 17 17 18 17 16 15 15 16 15 13 13 14 13 13 13 12 11 11 10 10 11 11
16 15 13 14 17 17 16 19 22 24 21 20 19 19 19 18 18 18 17 16 16 17 16 17 19 20 18 17 17 17 16 14 12 15 14 14 13 13 12 11 12 12 11
18 16 15 16 15 15 18 23 23 19 18 18 18 18 18 18 18 18 18 18 17 17 18 18 18 18 20 20 21 20 18 18 17 18 14 13 14 14 14 13 13 13 12
17 15 14 14 17 19 19 18 16 15 16 16 16 17 17 17 17 17 17 17 17 17 18 18 19 18 19 20 20 18 18 18 17 18 14 14 14 13 13 13 13 11 12
Wind_Direction
341 341 337 333 330 325 320 315 308 301 302 299 299 294 294 299 298 318 316 318 333 340 332 338 346 344 337 329 325 329 319 315 328 305 21 10 43 17 30 26 50 62 61
337 333 328 328 326 322 320 313 308 304 303 296 296 297 302 303 322 323 314 301 303 315 329 333 337 340 341 330 322 317 321 316 320 262 279 53 38 29 23 44 54 70 69
330 327 320 323 327 326 322 321 320 318 318 317 316 329 343 338 330 325 316 306 295 298 330 317 327 336 335 325 324 317 319 319 306 248 207 69 49 33 37 47 61 75 83
326 320 324 334 334 331 332 334 337 335 331 331 333 338 345 337 341 337 326 319 301 300 319 317 320 326 327 328 323 326 330 330 341 242 158 96 40 43 43 56 67 71 74
327 322 328 330 330 328 340 345 341 336 332 325 319 323 325 337 317 331 334 327 312 309 312 320 320 321 336 329 321 328 330 332 30 180 136 117 55 52 43 51 58 72 81
332 329 329 321 321 321 337 338 341 341 337 335 326 323 323 309 306 319 324 319 323 318 313 310 324 329 315 332 320 333 340 323 59 120 133 74 88 75 33 37 40 54 73
330 329 323 317 318 319 330 339 342 340 341 338 336 335 324 312 301 300 304 309 313 327 324 328 329 325 327 330 329 350 345 75 49 113 140 73 76 72 59 59 86 104 91
333 328 332 326 319 328 339 343 344 341 333 339 330 324 317 316 320 302 278 304 310 336 336 333 334 338 341 346 14 24 86 89 65 102 131 122 89 65 64 62 90 93 90
338 338 342 352 353 353 340 333 341 339 332 325 342 328 346 356 347 49 31 0 6 349 345 339 359 10 5 57 90 82 97 102 98 125 137 107 88 76 78 59 59 100 102
341 342 349 354 344 353 350 346 347 336 325 328 341 1 29 20 53 46 60 25 26 11 9 32 40 56 76 87 95 96 100 100 112 119 118 103 80 76 54 49 92 103 103
357 3 355 353 358 344 345 346 346 352 349 3 17 46 45 43 46 36 33 56 60 71 61 62 60 70 82 83 89 96 102 106 109 116 111 100 74 50 49 72 84 99 93
6 8 358 353 349 351 354 7 17 20 40 66 68 62 55 54 42 38 52 71 73 80 77 70 76 88 90 83 85 84 91 96 95 98 96 91 79 78 87 93 95 89 86
359 344 352 0 1 3 36 45 35 47 61 67 66 60 49 43 47 50 66 73 76 77 80 77 87 79 86 76 68 83 96 106 107 104 93 90 91 96 96 91 86 84 86
0 5 8 13 34 62 56 41 42 55 69 70 70 67 61 64 60 70 73 75 77 78 77 82 82 78 88 84 84 81 83 89 94 95 97 97 99 98 89 77 77 78 73
46 38 41 48 77 60 51 52 65 72 75 78 77 73 71 69 70 73 75 81 83 81 87 91 93 92 90 90 89 89 92 92 84 90 95 93 84 80 82 79 74 76 78
49 57 69 70 61 76 73 66 66 70 74 73 70 71 68 72 73 70 68 71 80 89 89 88 90 88 87 87 87 90 90 84 83 80 78 74 77 75 70 69 72 75 75
62 78 67 63 71 73 72 73 70 66 66 67 67 67 67 69 71 72 75 78 84 92 92 91 92 93 78 76 75 72 68 59 64 68 68 66 64 60 67 70 72 73 71
74 75 59 68 75 78 80 75 78 77 74 73 69 67 71 75 80 89 91 89 90 90 91 89 79 70 72 76 76 73 72 70 67 65 65 66 67 68 66 66 69 67 65
73 67 71 74 76 79 83 83 81 78 77 79 82 82 78 76 82 88 91 91 88 82 78 77 76 74 71 69 64 60 58 53 53 50 48 44 47 49 49 55 50 53 45
71 78 76 77 85 84 83 84 85 84 88 91 85 82 67 68 69 71 70 72 74 74 74 71 68 65 62 55 49 45 43 39 39 40 35 32 28 33 31 30 34 22 10
67 76 82 83 83 85 84 84 88 89 87 79 64 71 74 72 75 75 78 76 72 67 63 60 58 55 50 45 43 40 41 38 35 34 31 27 29 32 26 21 20 20 20
72 79 85 87 88 86 78 78 83 79 76 66 67 65 70 73 72 69 68 66 60 58 55 52 51 49 45 42 40 36 35 31 25 27 22 19 21 22 25 26 23 21 15
87 92 87 82 74 66 70 71 69 66 69 72 71 70 68 69 68 66 62 59 57 56 53 52 49 44 42 37 32 31 32 33 27 28 27 29 30 41 37 36 34 31 31
85 82 84 83 80 75 75 78 83 87 79 75 73 68 63 62 61 57 57 57 56 56 54 51 47 47 48 44 42 41 43 43 41 35 38 41 43 44 45 45 42 42 38
90 90 84 79 82 85 94 97 86 69 68 67 66 64 64 64 64 62 61 58 59 57 54 53 52 47 53 54 53 50 47 47 56 59 41 42 44 42 46 45 43 39 40
82 79 80 85 97 97 95 82 71 71 68 68 68 70 69 66 64 61 59 59 57 56 57 55 59 57 54 50 46 44 43 44 52 60 44 39 40 45 41 38 37 32 29